Retour au catalogue

FENGYUN 1C DEB

ActifSSO
NORAD 32180·DEBRIS·🇨🇳 China

Lancé May 10, 1999 depuis Taiyuan Satellite Launch Center

Loading…

Prochains Passages (prochaines 24 heures)

TLE

FraisSource: Space-Track

Époque: Sep 13, 2026, 08:44 UTC

1 32180U 99025CUA 26256.36435509  .00000018  00000-0  55559-4 0  9997
2 32180  99.5494 305.6199 0136240 206.6496 214.4120 13.82382027980623

Suivez FENGYUN 1C DEB en temps réel avec AllMySat

Download on the App Store